Date String (YYYY-MM-DD hh:mm:ss) UTC,Instrument flags,Ambient pressure (hPa),Sample flow (lpm),Bypass flow (lpm),Sample temperature (°C),Ambient temperature (°C),ASC tube jacket temperature (°C),LED temperature (°C),Box temperature (°C),Sample RH (%),Span deviation,Mass concentration (μg/m³),Mass concentration (μg/m³),Mass concentration (μg/m³)
DateTimeUTC,F1_M11,P_M11,Q1_M11,Q2_M11,T1_M11,T2_M11,T3_M11,T4_M11,T5_M11,U1_M11,ZSPAN_M11,X2_M11,X0_M11,X1_M11
2021-10-10 21:00:00,,0820.2,5.00,0.00,30.3,29.5,00.0,39.2,32.1,11.0,0000.0,0001.28,0001.55,0001.19
2021-10-10 21:01:00,,0820.2,5.00,0.00,30.3,29.5,00.0,39.2,32.1,10.9,0000.0,0001.30,0001.61,0001.19
2021-10-10 21:02:00,,0820.2,5.01,0.00,30.3,28.4,00.0,39.2,31.8,10.9,0000.0,0001.30,0001.62,0001.20
2021-10-10 21:03:00,,0820.1,5.00,0.00,30.1,26.2,00.0,39.2,31.2,11.0,0000.0,0001.32,0001.68,0001.20
2021-10-10 21:04:00,,0820.2,4.99,0.00,29.9,25.9,00.0,39.1,31.1,11.1,0000.0,0001.33,0001.69,0001.21
2021-10-10 21:05:00,,0820.1,5.00,0.00,29.8,26.2,00.0,39.1,31.2,11.1,0000.0,0001.34,0001.72,0001.22
2021-10-10 21:06:00,,0820.2,5.00,0.00,29.8,26.7,00.0,39.0,31.3,11.1,0000.0,0001.36,0001.75,0001.23
2021-10-10 21:07:00,,0820.2,5.00,0.00,29.7,27.2,00.0,39.0,31.3,11.2,0000.0,0001.35,0001.78,0001.24
2021-10-10 21:08:00,,0820.2,5.00,0.00,29.7,27.5,00.0,39.0,31.4,11.1,0000.0,0001.35,0001.77,0001.23
2021-10-10 21:09:00,,0820.2,5.00,0.00,29.8,27.9,00.0,38.9,31.4,11.3,0000.0,0001.37,0001.82,0001.24
2021-10-10 21:10:00,,0820.2,5.00,0.00,29.8,28.1,00.0,38.9,31.5,11.4,0000.0,0001.38,0001.85,0001.25
2021-10-10 21:11:00,,0820.2,4.99,0.00,29.8,28.3,00.0,38.9,31.5,11.4,0000.0,0001.38,0001.82,0001.26
2021-10-10 21:12:00,,0820.2,5.01,0.00,29.8,28.4,00.0,38.9,31.6,11.4,0000.0,0001.35,0001.75,0001.26
2021-10-10 21:13:00,,0820.2,5.00,0.00,29.8,28.6,00.0,38.9,31.6,11.4,0000.0,0001.37,0001.78,0001.27
2021-10-10 21:14:00,,0820.2,4.99,0.00,29.8,28.7,00.0,38.9,31.7,11.4,0000.0,0001.36,0001.71,0001.27
2021-10-10 21:15:00,,0820.2,4.99,0.00,29.9,28.8,00.0,38.9,31.7,11.3,0000.0,0001.36,0001.71,0001.28
2021-10-10 21:16:00,,0820.2,5.00,0.00,29.9,28.8,00.0,38.9,31.8,11.4,0000.0,0001.37,0001.75,0001.28
2021-10-10 21:17:00,,0820.2,5.00,0.00,29.9,28.9,00.0,38.9,31.8,11.3,0000.0,0001.38,0001.76,0001.28
2021-10-10 21:18:00,,0820.2,5.01,0.00,30.0,29.0,00.0,39.0,31.8,11.1,0000.0,0001.39,0001.68,0001.28
2021-10-10 21:19:00,,0820.2,5.00,0.00,30.0,29.1,00.0,39.0,31.9,11.1,0000.0,0001.38,0001.65,0001.29
2021-10-10 21:20:00,,0820.2,4.99,0.00,30.0,29.1,00.0,39.0,31.9,11.2,0000.0,0001.38,0001.63,0001.30
2021-10-10 21:21:00,,0820.2,5.01,0.00,30.1,29.1,00.0,39.0,31.9,11.3,0000.0,0001.39,0001.63,0001.30
2021-10-10 21:22:00,,0820.2,5.00,0.00,30.1,29.2,00.0,39.0,31.9,11.2,0000.0,0001.41,0001.67,0001.31
2021-10-10 21:23:00,,0820.2,4.99,0.00,30.1,29.2,00.0,39.1,31.9,11.1,0000.0,0001.42,0001.69,0001.31
2021-10-10 21:24:00,,0820.2,5.00,0.00,30.1,29.3,00.0,39.1,31.9,11.3,0000.0,0001.44,0001.81,0001.31
2021-10-10 21:25:00,,0820.1,5.00,0.00,30.1,29.3,00.0,39.1,32.0,11.4,0000.0,0001.45,0002.06,0001.31
2021-10-10 21:26:00,,0820.1,5.02,0.00,30.1,29.3,00.0,39.1,31.9,11.4,0000.0,0001.46,0002.07,0001.32
2021-10-10 21:27:00,,0820.2,4.99,0.00,30.2,29.4,00.0,39.1,32.0,11.1,0000.0,0001.47,0002.08,0001.32
2021-10-10 21:28:00,,0820.2,5.01,0.00,30.2,28.5,00.0,39.1,31.7,11.0,0000.0,0001.47,0003.56,0001.33
2021-10-10 21:29:00,,0820.2,4.99,0.00,30.0,26.2,00.0,39.1,31.0,11.1,0000.0,0001.46,0003.88,0001.34
2021-10-10 21:30:00,,0820.2,5.00,0.00,29.8,25.7,00.0,39.0,30.8,11.4,0000.0,0001.47,0003.91,0001.34
2021-10-10 21:31:00,,0820.2,5.00,0.00,29.7,26.1,00.0,39.0,31.0,11.3,0000.0,0001.50,0003.96,0001.35
2021-10-10 21:32:00,,0820.2,5.00,0.00,29.6,26.5,00.0,38.9,31.1,11.4,0000.0,0001.52,0004.01,0001.35
2021-10-10 21:33:00,,0820.2,5.01,0.00,29.6,27.0,00.0,38.9,31.2,11.3,0000.0,0001.51,0003.99,0001.35
2021-10-10 21:34:00,,0820.2,5.00,0.00,29.6,27.4,00.0,38.8,31.3,11.4,0000.0,0001.50,0003.98,0001.35
2021-10-10 21:35:00,,0820.2,4.99,0.00,29.6,27.7,00.0,38.8,31.3,11.7,0000.0,0001.47,0003.95,0001.35
2021-10-10 21:36:00,,0820.2,5.00,0.00,29.7,28.0,00.0,38.8,31.4,11.6,0000.0,0001.49,0004.18,0001.36
2021-10-10 21:37:00,,0820.2,4.99,0.00,29.7,28.2,00.0,38.8,31.4,11.6,0000.0,0001.50,0004.20,0001.38
2021-10-10 21:38:00,,0820.2,4.99,0.00,29.7,28.3,00.0,38.8,31.5,11.7,0000.0,0001.52,0004.21,0001.40
2021-10-10 21:39:00,,0820.2,5.01,0.00,29.7,28.5,00.0,38.8,31.5,11.5,0000.0,0001.51,0002.79,0001.40
2021-10-10 21:40:00,,0820.2,4.99,0.00,29.8,28.6,00.0,38.8,31.6,11.4,0000.0,0001.57,0002.49,0001.42
2021-10-10 21:41:00,,0820.3,4.98,0.00,29.8,28.7,00.0,38.8,31.6,11.3,0000.0,0001.61,0002.55,0001.44
2021-10-10 21:42:00,,0820.2,5.00,0.00,29.8,28.8,00.0,38.8,31.7,11.4,0000.0,0001.61,0002.55,0001.45
2021-10-10 21:43:00,,0820.2,4.99,0.00,29.9,28.9,00.0,38.9,31.7,11.4,0000.0,0001.62,0002.56,0001.47
2021-10-10 21:44:00,,0820.2,5.00,0.00,29.9,28.9,00.0,38.9,31.8,11.5,0000.0,0001.64,0002.58,0001.49
2021-10-10 21:45:00,,0820.2,5.00,0.00,29.9,29.0,00.0,38.9,31.8,11.4,0000.0,0001.69,0002.67,0001.51
2021-10-10 21:46:00,,0820.2,5.00,0.00,30.0,29.1,00.0,38.9,31.8,11.4,0000.0,0001.73,0002.64,0001.54
2021-10-10 21:47:00,,0820.2,4.99,0.00,30.0,29.1,00.0,38.9,31.9,11.3,0000.0,0001.73,0002.12,0001.56
2021-10-10 21:48:00,,0820.2,5.01,0.00,30.0,29.2,00.0,39.0,31.9,11.3,0000.0,0001.74,0002.18,0001.57
2021-10-10 21:49:00,,0820.3,4.99,0.00,30.1,29.2,00.0,39.0,31.9,11.4,0000.0,0001.75,0002.27,0001.57
2021-10-10 21:50:00,,0820.2,5.00,0.00,30.1,29.2,00.0,39.0,32.0,11.4,0000.0,0001.78,0002.32,0001.59
2021-10-10 21:51:00,,0820.2,5.00,0.00,30.1,29.3,00.0,39.0,32.0,11.2,0000.0,0001.74,0002.22,0001.59
2021-10-10 21:52:00,,0820.3,4.99,0.00,30.2,29.3,00.0,39.1,32.0,11.2,0000.0,0001.75,0002.23,0001.60
2021-10-10 21:53:00,,0820.3,4.99,0.00,30.2,29.4,00.0,39.1,32.0,11.1,0000.0,0001.77,0002.25,0001.62
2021-10-10 21:54:00,,0820.2,4.99,0.00,30.2,29.4,00.0,39.1,32.1,11.2,0000.0,0001.76,0002.22,0001.62
2021-10-10 21:55:00,,0820.2,5.00,0.00,30.2,29.5,00.0,39.1,32.1,11.3,0000.0,0001.75,0002.18,0001.63
2021-10-10 21:56:00,,0820.2,5.01,0.00,30.3,29.5,00.0,39.2,32.1,11.2,0000.0,0001.75,0002.15,0001.64
2021-10-10 21:57:00,,0820.2,5.01,0.00,30.2,28.1,00.0,39.2,31.7,11.1,0000.0,0001.78,0002.19,0001.66
2021-10-10 21:58:00,,0820.3,4.99,0.00,30.0,26.0,00.0,39.1,31.1,11.2,0000.0,0001.80,0002.19,0001.68
2021-10-10 21:59:00,,0820.2,5.00,0.00,29.8,25.7,00.0,39.1,31.0,11.5,0000.0,0001.83,0002.17,0001.72
